Precipitable_Water
1.00 0.99 0.98 0.96 0.97 0.92 0.83 0.89 0.90 0.87 0.86 0.84 0.78 0.78 0.81 0.79 0.77 0.78 0.81 0.77 0.76 0.71 0.68 0.68 0.67 0.65 0.62 0.61 0.61 0.61 0.61 0.61 0.62 0.61 0.60 0.59 0.58 0.57 0.54 0.53 0.50 0.50 0.50 0.50 0.52 0.51 0.50 0.49 0.48 0.48 0.49 0.48 0.50 0.50 0.50 0.50 0.49 0.49 0.48 0.46 0.44 0.43 0.39 0.35 0.29 0.27 0.32 0.38 0.36 0.34 0.35 0.30 0.26 0.29 0.26 0.27 0.28 0.32 0.35 0.36 0.38 0.38 0.39 0.40 0.42
0.96 0.97 0.96 0.99 0.96 0.90 0.84 0.90 0.90 0.88 0.88 0.85 0.80 0.81 0.86 0.84 0.83 0.83 0.81 0.82 0.82 0.79 0.78 0.78 0.78 0.75 0.72 0.70 0.68 0.68 0.68 0.67 0.67 0.67 0.64 0.64 0.65 0.64 0.62 0.59 0.56 0.56 0.55 0.52 0.53 0.55 0.55 0.54 0.53 0.54 0.55 0.52 0.53 0.53 0.54 0.54 0.54 0.53 0.52 0.49 0.46 0.44 0.45 0.39 0.36 0.34 0.32 0.37 0.36 0.37 0.33 0.34 0.28 0.31 0.27 0.27 0.27 0.30 0.31 0.33 0.36 0.38 0.39 0.40 0.41
0.96 0.95 0.93 0.95 0.92 0.88 0.87 0.90 0.91 0.89 0.88 0.86 0.82 0.83 0.91 0.95 0.95 0.90 0.88 0.89 0.89 0.86 0.86 0.88 0.90 0.88 0.86 0.87 0.87 0.87 0.86 0.85 0.85 0.82 0.79 0.77 0.75 0.75 0.74 0.71 0.67 0.65 0.62 0.60 0.58 0.59 0.58 0.58 0.56 0.58 0.60 0.58 0.58 0.59 0.61 0.60 0.61 0.58 0.57 0.56 0.52 0.50 0.48 0.46 0.41 0.36 0.36 0.36 0.40 0.36 0.36 0.37 0.35 0.35 0.35 0.34 0.33 0.34 0.31 0.31 0.32 0.34 0.36 0.38 0.39
0.95 0.94 0.93 0.94 0.98 0.94 0.90 0.91 0.91 0.92 0.90 0.89 0.87 0.89 0.98 1.00 1.01 1.03 1.03 1.02 0.98 0.98 0.99 0.98 0.96 0.95 0.93 0.93 0.93 0.93 0.95 0.95 0.93 0.91 0.88 0.84 0.82 0.80 0.80 0.79 0.78 0.76 0.74 0.72 0.71 0.70 0.68 0.64 0.61 0.60 0.62 0.62 0.62 0.62 0.64 0.66 0.65 0.65 0.63 0.60 0.57 0.54 0.54 0.52 0.49 0.44 0.41 0.38 0.38 0.40 0.40 0.41 0.41 0.44 0.44 0.43 0.41 0.39 0.38 0.37 0.36 0.35 0.36 0.37 0.38
0.93 0.95 0.94 0.94 0.95 0.91 0.86 0.85 0.88 0.91 0.90 0.92 0.95 0.96 0.99 1.05 1.05 1.03 1.05 1.04 1.05 1.05 1.04 1.07 1.04 0.99 0.95 0.92 0.92 0.94 0.96 0.98 0.97 0.96 0.94 0.91 0.88 0.86 0.85 0.84 0.83 0.83 0.82 0.81 0.80 0.78 0.76 0.73 0.70 0.68 0.66 0.65 0.65 0.64 0.65 0.64 0.64 0.63 0.61 0.58 0.54 0.52 0.50 0.50 0.49 0.47 0.43 0.41 0.42 0.45 0.47 0.47 0.48 0.49 0.51 0.49 0.49 0.48 0.47 0.45 0.44 0.43 0.42 0.42 0.41
0.93 0.92 0.92 0.90 0.91 0.90 0.86 0.86 0.89 0.93 0.94 0.94 0.92 0.90 0.92 1.00 1.06 1.05 1.03 1.03 1.04 1.03 1.04 1.09 1.11 1.09 1.04 0.99 0.98 0.99 0.99 1.00 1.01 1.01 0.99 0.97 0.93 0.90 0.88 0.87 0.86 0.86 0.86 0.85 0.84 0.83 0.80 0.79 0.78 0.77 0.75 0.71 0.70 0.70 0.69 0.68 0.68 0.66 0.62 0.58 0.55 0.52 0.49 0.47 0.45 0.44 0.43 0.43 0.44 0.44 0.47 0.47 0.48 0.49 0.52 0.52 0.50 0.50 0.50 0.51 0.50 0.49 0.47 0.45 0.44
0.92 0.89 0.89 0.89 0.89 0.90 0.89 0.89 0.90 0.91 0.90 0.90 0.93 0.94 0.95 0.99 1.00 1.00 1.03 1.03 1.02 1.01 1.01 1.01 1.01 1.04 1.04 1.04 1.02 1.02 1.01 1.02 1.03 1.03 1.01 1.00 0.98 0.95 0.92 0.90 0.89 0.89 0.88 0.87 0.85 0.84 0.83 0.82 0.82 0.81 0.79 0.77 0.75 0.72 0.71 0.69 0.67 0.63 0.60 0.57 0.55 0.53 0.52 0.50 0.49 0.47 0.45 0.43 0.42 0.42 0.42 0.45 0.45 0.44 0.48 0.49 0.47 0.45 0.43 0.42 0.43 0.47 0.47 0.46 0.45
0.89 0.87 0.85 0.84 0.84 0.87 0.89 0.91 0.91 0.91 0.89 0.92 0.98 0.98 0.97 0.99 1.01 1.02 1.02 1.03 1.03 1.04 1.01 1.00 1.05 1.03 1.03 1.03 1.01 1.01 1.01 1.02 1.02 1.03 1.02 1.00 0.98 0.96 0.95 0.93 0.91 0.92 0.92 0.91 0.90 0.88 0.86 0.85 0.85 0.84 0.81 0.80 0.78 0.77 0.74 0.71 0.68 0.64 0.61 0.59 0.56 0.53 0.50 0.48 0.47 0.46 0.47 0.47 0.46 0.46 0.47 0.44 0.43 0.43 0.42 0.41 0.38 0.39 0.42 0.40 0.37 0.37 0.39 0.41 0.40
0.85 0.82 0.81 0.82 0.85 0.87 0.85 0.85 0.87 0.90 0.92 0.93 0.97 0.98 0.99 1.00 1.01 1.00 1.02 1.01 0.98 0.96 1.00 1.00 0.99 0.98 0.97 0.96 0.96 0.96 0.95 0.97 0.97 0.94 0.94 0.94 0.95 0.95 0.96 0.95 0.94 0.93 0.93 0.93 0.93 0.92 0.90 0.89 0.88 0.87 0.85 0.83 0.81 0.79 0.77 0.74 0.69 0.64 0.62 0.59 0.56 0.53 0.51 0.49 0.48 0.46 0.45 0.45 0.45 0.46 0.44 0.43 0.42 0.41 0.38 0.36 0.34 0.32 0.34 0.36 0.33 0.34 0.35 0.34 0.35
0.86 0.84 0.84 0.85 0.86 0.85 0.85 0.88 0.93 0.94 0.91 0.87 0.88 0.91 0.94 0.96 0.95 0.93 0.93 0.94 0.94 0.98 1.00 0.97 0.96 0.94 0.91 0.90 0.90 0.90 0.90 0.90 0.91 0.91 0.91 0.91 0.91 0.92 0.93 0.93 0.93 0.92 0.92 0.91 0.92 0.92 0.92 0.92 0.91 0.90 0.89 0.87 0.85 0.81 0.77 0.72 0.69 0.66 0.62 0.60 0.58 0.56 0.54 0.52 0.51 0.49 0.48 0.46 0.46 0.45 0.43 0.42 0.41 0.40 0.38 0.38 0.38 0.37 0.34 0.32 0.29 0.31 0.31 0.30 0.30
0.82 0.82 0.83 0.86 0.87 0.88 0.89 0.87 0.89 0.88 0.90 0.91 0.89 0.90 0.92 0.94 0.95 0.94 0.90 0.86 0.86 0.93 0.95 0.96 0.94 0.92 0.90 0.87 0.86 0.86 0.88 0.91 0.92 0.92 0.92 0.92 0.91 0.88 0.86 0.88 0.90 0.90 0.90 0.89 0.89 0.89 0.89 0.91 0.92 0.92 0.91 0.88 0.85 0.81 0.76 0.71 0.67 0.67 0.67 0.65 0.62 0.59 0.57 0.55 0.54 0.53 0.50 0.49 0.49 0.48 0.45 0.44 0.45 0.45 0.43 0.42 0.41 0.38 0.35 0.34 0.32 0.30 0.27 0.25 0.23
0.71 0.75 0.79 0.83 0.88 0.89 0.89 0.89 0.88 0.88 0.88 0.86 0.83 0.84 0.85 0.83 0.81 0.79 0.78 0.79 0.83 0.87 0.88 0.88 0.88 0.88 0.88 0.88 0.87 0.88 0.87 0.88 0.89 0.90 0.91 0.91 0.91 0.90 0.89 0.88 0.88 0.89 0.89 0.89 0.89 0.89 0.89 0.90 0.92 0.93 0.90 0.86 0.82 0.79 0.76 0.72 0.72 0.75 0.74 0.69 0.66 0.64 0.65 0.62 0.58 0.55 0.53 0.51 0.49 0.49 0.48 0.46 0.46 0.46 0.45 0.44 0.42 0.40 0.39 0.37 0.34 0.31 0.28 0.26 0.26
0.58 0.60 0.62 0.64 0.66 0.67 0.68 0.67 0.69 0.71 0.70 0.67 0.63 0.62 0.62 0.62 0.63 0.65 0.66 0.68 0.70 0.72 0.75 0.77 0.78 0.80 0.80 0.80 0.80 0.82 0.81 0.82 0.81 0.81 0.82 0.85 0.89 0.90 0.90 0.90 0.88 0.88 0.88 0.90 0.90 0.89 0.90 0.88 0.88 0.90 0.88 0.84 0.82 0.80 0.78 0.79 0.80 0.76 0.73 0.70 0.68 0.65 0.65 0.66 0.66 0.62 0.58 0.53 0.49 0.47 0.47 0.47 0.45 0.46 0.47 0.44 0.43 0.38 0.37 0.34 0.33 0.32 0.31 0.29 0.28
0.50 0.51 0.50 0.49 0.49 0.48 0.48 0.50 0.53 0.53 0.53 0.52 0.54 0.55 0.55 0.53 0.53 0.54 0.55 0.56 0.55 0.55 0.57 0.58 0.59 0.61 0.62 0.63 0.64 0.67 0.68 0.70 0.70 0.69 0.70 0.71 0.73 0.74 0.76 0.77 0.79 0.81 0.82 0.83 0.83 0.82 0.81 0.79 0.77 0.75 0.76 0.76 0.77 0.80 0.80 0.78 0.77 0.76 0.74 0.70 0.66 0.65 0.66 0.67 0.65 0.62 0.58 0.52 0.48 0.45 0.47 0.48 0.45 0.45 0.46 0.45 0.40 0.36 0.35 0.33 0.33 0.31 0.30 0.30 0.31
0.48 0.47 0.48 0.47 0.47 0.45 0.44 0.44 0.45 0.45 0.46 0.46 0.46 0.46 0.46 0.46 0.46 0.47 0.47 0.47 0.47 0.47 0.47 0.46 0.46 0.48 0.50 0.52 0.52 0.53 0.57 0.60 0.60 0.60 0.59 0.57 0.57 0.58 0.59 0.60 0.62 0.65 0.69 0.71 0.72 0.74 0.74 0.74 0.72 0.71 0.72 0.72 0.76 0.77 0.74 0.75 0.75 0.71 0.68 0.66 0.66 0.67 0.68 0.66 0.62 0.58 0.53 0.51 0.48 0.46 0.47 0.47 0.46 0.45 0.44 0.43 0.40 0.38 0.37 0.34 0.34 0.33 0.33 0.34 0.33
0.51 0.48 0.47 0.46 0.46 0.46 0.46 0.45 0.45 0.45 0.45 0.46 0.45 0.45 0.45 0.45 0.45 0.46 0.45 0.44 0.44 0.44 0.44 0.43 0.42 0.42 0.44 0.48 0.49 0.47 0.52 0.56 0.57 0.56 0.54 0.51 0.50 0.50 0.49 0.49 0.51 0.53 0.56 0.59 0.62 0.66 0.67 0.66 0.64 0.62 0.63 0.66 0.68 0.69 0.71 0.70 0.66 0.64 0.62 0.63 0.64 0.64 0.62 0.60 0.57 0.53 0.51 0.49 0.48 0.47 0.47 0.46 0.45 0.43 0.42 0.40 0.38 0.37 0.36 0.36 0.35 0.33 0.30 0.28 0.27
0.56 0.54 0.52 0.50 0.49 0.48 0.48 0.47 0.47 0.47 0.48 0.47 0.46 0.46 0.45 0.44 0.44 0.43 0.39 0.40 0.38 0.38 0.38 0.39 0.40 0.40 0.39 0.41 0.43 0.45 0.49 0.53 0.54 0.54 0.52 0.51 0.49 0.48 0.47 0.48 0.48 0.48 0.49 0.51 0.52 0.55 0.57 0.58 0.58 0.57 0.57 0.58 0.62 0.64 0.63 0.62 0.59 0.57 0.54 0.53 0.54 0.53 0.50 0.50 0.51 0.49 0.48 0.47 0.46 0.45 0.44 0.43 0.41 0.40 0.39 0.38 0.36 0.35 0.34 0.31 0.29 0.30 0.28 0.25 0.26
0.55 0.54 0.53 0.53 0.52 0.51 0.50 0.49 0.48 0.48 0.48 0.47 0.47 0.47 0.45 0.44 0.41 0.41 0.36 0.35 0.35 0.36 0.35 0.34 0.35 0.37 0.38 0.40 0.44 0.44 0.47 0.51 0.53 0.54 0.53 0.53 0.51 0.48 0.47 0.46 0.45 0.45 0.47 0.50 0.52 0.53 0.55 0.57 0.58 0.58 0.58 0.60 0.61 0.62 0.62 0.60 0.56 0.53 0.50 0.48 0.45 0.44 0.43 0.44 0.45 0.45 0.45 0.44 0.43 0.42 0.41 0.40 0.39 0.38 0.36 0.35 0.35 0.36 0.33 0.28 0.30 0.30 0.27 0.27 0.25
0.57 0.55 0.55 0.55 0.54 0.53 0.52 0.51 0.50 0.49 0.48 0.48 0.48 0.47 0.46 0.47 0.47 0.48 0.47 0.46 0.44 0.44 0.42 0.39 0.39 0.38 0.38 0.39 0.44 0.45 0.49 0.53 0.57 0.58 0.57 0.56 0.54 0.52 0.49 0.47 0.44 0.44 0.45 0.47 0.50 0.51 0.53 0.55 0.56 0.57 0.58 0.59 0.59 0.59 0.57 0.55 0.53 0.51 0.48 0.45 0.42 0.41 0.42 0.44 0.43 0.42 0.41 0.40 0.40 0.40 0.39 0.38 0.37 0.36 0.36 0.37 0.37 0.37 0.36 0.34 0.34 0.31 0.28 0.27 0.27
0.62 0.63 0.62 0.62 0.61 0.60 0.59 0.56 0.54 0.52 0.51 0.51 0.52 0.52 0.52 0.52 0.52 0.51 0.50 0.50 0.49 0.49 0.48 0.46 0.44 0.42 0.42 0.42 0.42 0.45 0.48 0.53 0.57 0.60 0.60 0.59 0.58 0.56 0.53 0.49 0.46 0.46 0.46 0.46 0.47 0.50 0.52 0.53 0.53 0.53 0.55 0.55 0.54 0.53 0.53 0.53 0.50 0.48 0.46 0.43 0.41 0.39 0.41 0.41 0.40 0.39 0.38 0.38 0.37 0.37 0.35 0.36 0.36 0.37 0.36 0.36 0.36 0.37 0.36 0.36 0.35 0.34 0.31 0.29 0.29
0.59 0.59 0.59 0.58 0.57 0.58 0.58 0.58 0.56 0.55 0.54 0.53 0.53 0.53 0.53 0.52 0.51 0.51 0.51 0.52 0.52 0.52 0.51 0.50 0.48 0.46 0.44 0.44 0.44 0.46 0.48 0.51 0.55 0.58 0.59 0.59 0.60 0.59 0.56 0.53 0.51 0.49 0.48 0.47 0.46 0.46 0.48 0.50 0.52 0.50 0.49 0.50 0.52 0.51 0.49 0.48 0.46 0.45 0.44 0.41 0.40 0.40 0.41 0.39 0.39 0.39 0.38 0.37 0.36 0.35 0.35 0.36 0.35 0.35 0.35 0.35 0.35 0.35 0.36 0.36 0.37 0.37 0.34 0.32 0.30
0.52 0.53 0.54 0.53 0.53 0.54 0.55 0.56 0.56 0.56 0.56 0.56 0.55 0.54 0.55 0.54 0.53 0.52 0.52 0.53 0.53 0.53 0.52 0.51 0.49 0.47 0.46 0.46 0.46 0.47 0.50 0.52 0.53 0.56 0.58 0.59 0.60 0.60 0.58 0.56 0.55 0.52 0.49 0.48 0.47 0.47 0.46 0.46 0.47 0.51 0.52 0.51 0.49 0.48 0.46 0.45 0.45 0.43 0.43 0.43 0.43 0.42 0.41 0.41 0.40 0.38 0.36 0.35 0.35 0.34 0.34 0.34 0.33 0.34 0.34 0.34 0.34 0.34 0.34 0.35 0.36 0.36 0.37 0.36 0.33
0.45 0.46 0.48 0.51 0.52 0.51 0.51 0.52 0.53 0.55 0.55 0.55 0.54 0.53 0.54 0.53 0.52 0.51 0.51 0.52 0.52 0.52 0.51 0.50 0.48 0.47 0.45 0.47 0.48 0.49 0.51 0.53 0.54 0.56 0.57 0.58 0.58 0.58 0.58 0.56 0.55 0.54 0.52 0.49 0.49 0.49 0.50 0.50 0.52 0.52 0.52 0.50 0.48 0.46 0.44 0.44 0.44 0.44 0.44 0.43 0.41 0.41 0.41 0.39 0.37 0.35 0.34 0.33 0.32 0.31 0.31 0.31 0.31 0.31 0.32 0.32 0.33 0.34 0.34 0.35 0.36 0.36 0.36 0.36 0.37
0.45 0.43 0.43 0.45 0.47 0.49 0.51 0.52 0.52 0.52 0.52 0.53 0.52 0.51 0.51 0.51 0.51 0.50 0.50 0.50 0.49 0.49 0.50 0.50 0.48 0.46 0.45 0.46 0.48 0.49 0.51 0.52 0.54 0.54 0.55 0.56 0.57 0.57 0.56 0.55 0.54 0.52 0.51 0.50 0.50 0.50 0.50 0.50 0.50 0.49 0.48 0.47 0.45 0.44 0.44 0.44 0.44 0.43 0.42 0.41 0.41 0.40 0.37 0.35 0.34 0.33 0.32 0.31 0.30 0.29 0.30 0.31 0.31 0.31 0.31 0.33 0.33 0.34 0.35 0.35 0.36 0.36 0.36 0.36 0.37
0.44 0.44 0.43 0.43 0.43 0.44 0.44 0.46 0.47 0.48 0.49 0.49 0.48 0.49 0.49 0.50 0.48 0.49 0.49 0.49 0.50 0.50 0.50 0.51 0.49 0.47 0.46 0.46 0.47 0.48 0.49 0.49 0.50 0.50 0.50 0.51 0.52 0.53 0.52 0.52 0.51 0.51 0.50 0.49 0.49 0.48 0.48 0.47 0.46 0.46 0.46 0.46 0.47 0.47 0.47 0.45 0.43 0.42 0.41 0.39 0.38 0.36 0.35 0.33 0.32 0.31 0.30 0.29 0.30 0.30 0.30 0.31 0.31 0.32 0.33 0.34 0.34 0.35 0.34 0.35 0.35 0.36 0.36 0.36 0.36
0.43 0.43 0.44 0.45 0.44 0.44 0.43 0.42 0.43 0.44 0.45 0.46 0.46 0.47 0.47 0.47 0.47 0.48 0.49 0.49 0.49 0.48 0.48 0.49 0.48 0.48 0.48 0.48 0.48 0.49 0.49 0.48 0.46 0.46 0.48 0.50 0.52 0.52 0.52 0.50 0.49 0.49 0.49 0.48 0.47 0.47 0.47 0.47 0.48 0.48 0.47 0.46 0.45 0.43 0.41 0.40 0.39 0.38 0.37 0.37 0.36 0.35 0.34 0.32 0.32 0.31 0.30 0.30 0.29 0.29 0.29 0.31 0.31 0.32 0.33 0.33 0.32 0.31 0.32 0.32 0.32 0.31 0.33 0.32 0.32
0.43 0.42 0.42 0.44 0.45 0.46 0.44 0.44 0.43 0.43 0.43 0.44 0.45 0.45 0.45 0.46 0.47 0.47 0.46 0.46 0.47 0.48 0.47 0.47 0.47 0.47 0.46 0.48 0.51 0.50 0.49 0.46 0.44 0.44 0.46 0.49 0.51 0.52 0.51 0.50 0.49 0.48 0.47 0.47 0.47 0.47 0.46 0.46 0.45 0.43 0.42 0.41 0.40 0.39 0.38 0.37 0.36 0.36 0.36 0.36 0.35 0.34 0.34 0.34 0.33 0.32 0.30 0.30 0.29 0.30 0.30 0.31 0.33 0.33 0.32 0.32 0.31 0.32 0.33 0.32 0.32 0.31 0.32 0.33 0.31
0.40 0.42 0.43 0.43 0.43 0.44 0.44 0.44 0.44 0.43 0.44 0.44 0.44 0.44 0.44 0.44 0.44 0.43 0.43 0.43 0.43 0.43 0.44 0.44 0.43 0.44 0.47 0.49 0.52 0.51 0.48 0.46 0.46 0.46 0.47 0.49 0.49 0.48 0.47 0.46 0.45 0.45 0.45 0.45 0.44 0.43 0.41 0.40 0.40 0.40 0.38 0.36 0.35 0.34 0.34 0.34 0.35 0.35 0.35 0.35 0.35 0.36 0.35 0.35 0.34 0.32 0.31 0.31 0.31 0.32 0.32 0.32 0.31 0.32 0.32 0.32 0.32 0.33 0.34 0.34 0.33 0.32 0.33 0.33 0.31
0.39 0.40 0.41 0.43 0.43 0.44 0.44 0.45 0.45 0.45 0.45 0.46 0.47 0.46 0.45 0.45 0.44 0.45 0.47 0.47 0.44 0.41 0.39 0.41 0.45 0.52 0.55 0.56 0.54 0.50 0.48 0.46 0.48 0.50 0.48 0.45 0.44 0.44 0.43 0.43 0.43 0.42 0.41 0.40 0.38 0.38 0.38 0.37 0.35 0.34 0.33 0.32 0.32 0.32 0.33 0.34 0.34 0.35 0.35 0.35 0.34 0.33 0.32 0.31 0.30 0.30 0.32 0.32 0.32 0.32 0.32 0.32 0.32 0.32 0.32 0.32 0.32 0.33 0.35 0.34 0.35 0.34 0.34 0.34 0.31
0.36 0.37 0.39 0.40 0.40 0.41 0.42 0.44 0.46 0.46 0.46 0.45 0.45 0.45 0.47 0.47 0.47 0.44 0.44 0.47 0.46 0.45 0.42 0.41 0.48 0.52 0.56 0.59 0.58 0.54 0.51 0.52 0.48 0.45 0.45 0.45 0.45 0.44 0.42 0.41 0.41 0.40 0.38 0.37 0.37 0.36 0.34 0.32 0.32 0.32 0.33 0.33 0.34 0.34 0.34 0.34 0.33 0.32 0.31 0.31 0.31 0.31 0.31 0.32 0.32 0.33 0.33 0.33 0.33 0.33 0.32 0.32 0.32 0.33 0.33 0.32 0.33 0.35 0.36 0.36 0.35 0.36 0.34 0.33 0.32
0.34 0.36 0.38 0.39 0.40 0.41 0.40 0.40 0.42 0.43 0.43 0.44 0.44 0.43 0.43 0.47 0.48 0.46 0.44 0.44 0.46 0.47 0.47 0.47 0.51 0.54 0.55 0.53 0.55 0.55 0.52 0.47 0.44 0.44 0.44 0.44 0.44 0.43 0.42 0.41 0.40 0.39 0.38 0.36 0.34 0.32 0.32 0.32 0.34 0.34 0.35 0.36 0.36 0.34 0.32 0.30 0.28 0.28 0.29 0.30 0.32 0.32 0.33 0.33 0.33 0.34 0.34 0.34 0.34 0.34 0.34 0.34 0.33 0.34 0.34 0.35 0.35 0.36 0.37 0.38 0.38 0.37 0.36 0.36 0.35
0.31 0.33 0.36 0.38 0.40 0.41 0.41 0.40 0.40 0.39 0.39 0.40 0.41 0.41 0.41 0.41 0.44 0.48 0.47 0.46 0.49 0.51 0.50 0.52 0.55 0.56 0.56 0.55 0.53 0.51 0.50 0.46 0.45 0.44 0.44 0.43 0.42 0.41 0.40 0.40 0.39 0.37 0.37 0.37 0.35 0.35 0.35 0.34 0.34 0.35 0.36 0.35 0.32 0.29 0.27 0.27 0.29 0.30 0.30 0.30 0.31 0.32 0.32 0.32 0.34 0.35 0.35 0.35 0.35 0.36 0.36 0.36 0.36 0.37 0.37 0.38 0.38 0.38 0.39 0.40 0.41 0.41 0.41 0.41 0.41
0.32 0.32 0.33 0.36 0.38 0.39 0.40 0.40 0.40 0.40 0.39 0.39 0.39 0.39 0.39 0.39 0.38 0.39 0.43 0.47 0.50 0.52 0.52 0.54 0.57 0.58 0.56 0.56 0.54 0.51 0.50 0.48 0.45 0.44 0.43 0.41 0.40 0.39 0.39 0.38 0.37 0.38 0.37 0.35 0.34 0.33 0.35 0.36 0.36 0.35 0.33 0.28 0.27 0.27 0.29 0.30 0.30 0.30 0.30 0.30 0.30 0.31 0.33 0.35 0.37 0.37 0.38 0.38 0.38 0.38 0.39 0.40 0.40 0.41 0.42 0.43 0.43 0.43 0.44 0.45 0.46 0.46 0.46 0.46 0.46
0.33 0.33 0.32 0.33 0.34 0.36 0.37 0.38 0.39 0.40 0.40 0.40 0.39 0.38 0.38 0.37 0.36 0.37 0.37 0.40 0.45 0.49 0.56 0.60 0.62 0.59 0.56 0.54 0.53 0.51 0.49 0.47 0.45 0.44 0.43 0.41 0.40 0.38 0.37 0.38 0.40 0.39 0.38 0.36 0.36 0.34 0.34 0.34 0.33 0.30 0.27 0.28 0.29 0.29 0.29 0.30 0.30 0.29 0.30 0.31 0.32 0.33 0.35 0.37 0.38 0.39 0.40 0.41 0.42 0.43 0.43 0.44 0.45 0.45 0.46 0.48 0.49 0.49 0.49 0.50 0.50 0.49 0.49 0.49 0.49
0.33 0.34 0.34 0.33 0.33 0.33 0.35 0.36 0.38 0.39 0.40 0.39 0.38 0.37 0.36 0.37 0.37 0.37 0.38 0.38 0.38 0.39 0.44 0.52 0.55 0.54 0.52 0.51 0.51 0.50 0.47 0.45 0.45 0.44 0.43 0.41 0.39 0.39 0.40 0.37 0.36 0.37 0.38 0.37 0.34 0.33 0.32 0.31 0.28 0.27 0.28 0.29 0.29 0.29 0.29 0.29 0.29 0.29 0.30 0.31 0.32 0.34 0.36 0.38 0.40 0.42 0.44 0.45 0.45 0.46 0.47 0.48 0.50 0.50 0.50 0.50 0.50 0.50 0.50 0.50 0.50 0.50 0.50 0.50 0.50
0.35 0.33 0.33 0.33 0.33 0.33 0.33 0.34 0.36 0.37 0.38 0.39 0.40 0.40 0.40 0.39 0.38 0.39 0.41 0.42 0.41 0.41 0.42 0.44 0.45 0.47 0.49 0.50 0.48 0.47 0.47 0.48 0.47 0.45 0.43 0.41 0.40 0.40 0.37 0.36 0.36 0.36 0.36 0.36 0.34 0.33 0.29 0.28 0.28 0.29 0.29 0.29 0.29 0.29 0.29 0.29 0.30 0.30 0.31 0.32 0.33 0.36 0.38 0.41 0.44 0.45 0.47 0.48 0.48 0.50 0.50 0.51 0.52 0.52 0.52 0.51 0.51 0.51 0.51 0.50 0.50 0.50 0.50 0.49 0.49
0.44 0.40 0.36 0.34 0.34 0.33 0.33 0.33 0.34 0.37 0.39 0.42 0.43 0.42 0.41 0.41 0.42 0.42 0.41 0.42 0.41 0.40 0.39 0.41 0.42 0.43 0.45 0.47 0.48 0.48 0.48 0.46 0.44 0.42 0.40 0.40 0.40 0.40 0.38 0.37 0.37 0.38 0.38 0.36 0.31 0.27 0.26 0.28 0.29 0.29 0.29 0.29 0.29 0.29 0.30 0.30 0.31 0.32 0.33 0.34 0.36 0.38 0.42 0.45 0.47 0.48 0.49 0.49 0.50 0.51 0.51 0.51 0.52 0.52 0.52 0.50 0.50 0.51 0.51 0.51 0.50 0.50 0.50 0.50 0.50
0.48 0.47 0.44 0.41 0.38 0.36 0.34 0.33 0.33 0.35 0.38 0.41 0.42 0.42 0.42 0.42 0.42 0.42 0.42 0.42 0.41 0.39 0.37 0.39 0.43 0.46 0.47 0.47 0.48 0.46 0.45 0.43 0.41 0.40 0.40 0.40 0.41 0.40 0.39 0.39 0.39 0.39 0.37 0.31 0.27 0.27 0.28 0.28 0.29 0.28 0.29 0.29 0.29 0.30 0.30 0.30 0.31 0.32 0.32 0.34 0.37 0.40 0.45 0.48 0.49 0.50 0.50 0.51 0.51 0.51 0.52 0.52 0.52 0.52 0.52 0.51 0.50 0.50 0.50 0.50 0.50 0.50 0.50 0.50 0.49
0.51 0.51 0.50 0.48 0.44 0.40 0.37 0.35 0.34 0.34 0.35 0.37 0.39 0.40 0.40 0.41 0.43 0.43 0.42 0.41 0.39 0.42 0.46 0.47 0.48 0.47 0.46 0.46 0.45 0.45 0.42 0.39 0.38 0.38 0.40 0.41 0.41 0.41 0.40 0.39 0.39 0.35 0.31 0.29 0.28 0.27 0.27 0.27 0.29 0.29 0.29 0.29 0.30 0.31 0.31 0.31 0.32 0.31 0.32 0.33 0.36 0.42 0.46 0.48 0.49 0.50 0.51 0.51 0.51 0.52 0.52 0.52 0.53 0.53 0.53 0.52 0.51 0.51 0.51 0.51 0.51 0.50 0.49 0.49 0.49
0.55 0.53 0.52 0.52 0.50 0.47 0.43 0.39 0.37 0.35 0.36 0.36 0.36 0.38 0.40 0.41 0.41 0.40 0.40 0.40 0.42 0.47 0.51 0.51 0.50 0.47 0.44 0.44 0.45 0.44 0.40 0.38 0.39 0.40 0.41 0.41 0.40 0.40 0.39 0.36 0.32 0.31 0.31 0.30 0.27 0.25 0.27 0.28 0.29 0.29 0.29 0.30 0.31 0.31 0.32 0.32 0.31 0.31 0.31 0.32 0.36 0.42 0.46 0.49 0.50 0.50 0.51 0.52 0.52 0.52 0.52 0.52 0.53 0.53 0.52 0.52 0.52 0.52 0.51 0.51 0.51 0.52 0.51 0.50 0.50
0.53 0.54 0.54 0.52 0.51 0.50 0.47 0.44 0.41 0.39 0.38 0.37 0.37 0.38 0.38 0.39 0.40 0.40 0.42 0.44 0.45 0.48 0.50 0.48 0.44 0.44 0.46 0.46 0.45 0.43 0.41 0.40 0.41 0.41 0.40 0.39 0.39 0.36 0.33 0.32 0.33 0.33 0.32 0.29 0.25 0.25 0.28 0.29 0.29 0.29 0.30 0.31 0.31 0.31 0.32 0.32 0.31 0.29 0.29 0.31 0.36 0.42 0.47 0.49 0.50 0.51 0.52 0.52 0.52 0.52 0.52 0.52 0.52 0.52 0.52 0.52 0.53 0.53 0.53 0.54 0.53 0.53 0.53 0.52 0.52
0.53 0.53 0.52 0.51 0.50 0.48 0.46 0.43 0.42 0.40 0.39 0.38 0.38 0.37 0.37 0.38 0.41 0.41 0.41 0.45 0.48 0.47 0.45 0.43 0.45 0.47 0.47 0.45 0.43 0.43 0.42 0.42 0.41 0.39 0.39 0.37 0.33 0.31 0.32 0.34 0.35 0.34 0.31 0.27 0.25 0.26 0.28 0.29 0.29 0.30 0.30 0.31 0.31 0.31 0.32 0.31 0.30 0.28 0.28 0.30 0.35 0.41 0.46 0.49 0.50 0.51 0.52 0.52 0.52 0.52 0.52 0.53 0.53 0.53 0.53 0.53 0.54 0.54 0.54 0.54 0.53 0.53 0.53 0.53 0.53
0.49 0.50 0.49 0.49 0.48 0.47 0.45 0.43 0.42 0.41 0.41 0.40 0.40 0.38 0.40 0.41 0.40 0.41 0.43 0.45 0.45 0.44 0.44 0.45 0.46 0.46 0.44 0.44 0.44 0.44 0.43 0.42 0.40 0.38 0.36 0.33 0.32 0.33 0.34 0.35 0.35 0.33 0.31 0.28 0.27 0.28 0.30 0.30 0.30 0.31 0.31 0.31 0.31 0.31 0.31 0.30 0.29 0.27 0.27 0.29 0.34 0.40 0.46 0.49 0.50 0.51 0.52 0.52 0.52 0.52 0.53 0.53 0.53 0.53 0.54 0.54 0.54 0.54 0.54 0.54 0.53 0.52 0.52 0.52 0.52
0.48 0.48 0.48 0.47 0.47 0.46 0.45 0.44 0.43 0.44 0.43 0.43 0.48 0.47 0.46 0.46 0.43 0.44 0.45 0.45 0.46 0.46 0.47 0.46 0.45 0.44 0.44 0.45 0.45 0.43 0.42 0.40 0.38 0.35 0.33 0.32 0.32 0.34 0.35 0.35 0.34 0.33 0.29 0.27 0.27 0.30 0.31 0.31 0.31 0.32 0.32 0.32 0.32 0.32 0.31 0.30 0.28 0.26 0.26 0.29 0.33 0.39 0.44 0.48 0.50 0.51 0.51 0.52 0.52 0.52 0.53 0.53 0.54 0.54 0.54 0.55 0.54 0.54 0.54 0.53 0.52 0.51 0.51 0.51 0.51
0.49 0.47 0.45 0.44 0.44 0.44 0.44 0.44 0.45 0.45 0.45 0.48 0.48 0.48 0.47 0.45 0.46 0.47 0.48 0.47 0.47 0.47 0.46 0.46 0.45 0.44 0.44 0.44 0.43 0.40 0.38 0.37 0.34 0.33 0.32 0.32 0.33 0.35 0.35 0.34 0.33 0.31 0.28 0.27 0.29 0.31 0.31 0.32 0.32 0.32 0.32 0.32 0.32 0.31 0.30 0.29 0.27 0.26 0.27 0.29 0.33 0.37 0.41 0.46 0.50 0.52 0.53 0.52 0.52 0.53 0.53 0.53 0.53 0.54 0.54 0.55 0.55 0.54 0.53 0.52 0.51 0.51 0.50 0.50 0.50
0.51 0.49 0.48 0.46 0.45 0.45 0.45 0.45 0.45 0.46 0.46 0.45 0.47 0.49 0.49 0.49 0.49 0.49 0.48 0.47 0.47 0.46 0.46 0.46 0.46 0.45 0.44 0.41 0.39 0.37 0.34 0.33 0.32 0.32 0.32 0.33 0.35 0.36 0.35 0.34 0.33 0.31 0.29 0.29 0.30 0.30 0.32 0.32 0.32 0.32 0.32 0.31 0.30 0.29 0.29 0.28 0.27 0.26 0.27 0.30 0.34 0.37 0.41 0.44 0.49 0.51 0.52 0.53 0.53 0.53 0.53 0.53 0.53 0.55 0.55 0.54 0.55 0.55 0.53 0.52 0.53 0.53 0.51 0.50 0.50
0.53 0.52 0.51 0.51 0.50 0.48 0.47 0.46 0.46 0.47 0.48 0.48 0.49 0.48 0.49 0.49 0.49 0.49 0.49 0.48 0.48 0.48 0.47 0.46 0.45 0.44 0.42 0.39 0.36 0.34 0.32 0.31 0.31 0.31 0.32 0.34 0.35 0.35 0.35 0.34 0.32 0.31 0.29 0.29 0.30 0.31 0.32 0.32 0.32 0.32 0.31 0.29 0.29 0.28 0.28 0.27 0.26 0.26 0.27 0.30 0.34 0.37 0.39 0.42 0.46 0.49 0.51 0.53 0.54 0.53 0.53 0.53 0.53 0.54 0.54 0.54 0.54 0.54 0.54 0.54 0.54 0.54 0.53 0.52 0.51
0.50 0.50 0.51 0.51 0.51 0.50 0.50 0.50 0.50 0.50 0.49 0.49 0.49 0.49 0.49 0.50 0.49 0.49 0.48 0.48 0.48 0.47 0.46 0.45 0.44 0.42 0.39 0.36 0.34 0.32 0.31 0.31 0.31 0.31 0.32 0.34 0.35 0.35 0.35 0.34 0.33 0.30 0.29 0.29 0.30 0.32 0.33 0.33 0.33 0.32 0.30 0.28 0.27 0.27 0.27 0.27 0.26 0.25 0.26 0.29 0.33 0.35 0.37 0.39 0.42 0.46 0.50 0.52 0.52 0.53 0.54 0.53 0.54 0.54 0.54 0.54 0.54 0.54 0.54 0.54 0.55 0.56 0.55 0.54 0.52
0.50 0.49 0.48 0.48 0.48 0.49 0.49 0.49 0.49 0.48 0.48 0.48 0.48 0.48 0.48 0.48 0.48 0.47 0.47 0.47 0.46 0.46 0.45 0.42 0.40 0.38 0.36 0.33 0.32 0.31 0.31 0.31 0.30 0.31 0.32 0.34 0.35 0.36 0.36 0.35 0.33 0.30 0.29 0.29 0.30 0.32 0.33 0.33 0.32 0.30 0.28 0.26 0.25 0.26 0.26 0.26 0.25 0.25 0.26 0.28 0.31 0.33 0.35 0.37 0.40 0.43 0.46 0.49 0.51 0.52 0.53 0.53 0.53 0.54 0.54 0.54 0.54 0.54 0.54 0.55 0.55 0.55 0.56 0.55 0.54
0.48 0.48 0.48 0.48 0.48 0.48 0.49 0.48 0.48 0.48 0.48 0.48 0.47 0.47 0.47 0.47 0.46 0.46 0.45 0.45 0.44 0.43 0.41 0.39 0.37 0.35 0.33 0.31 0.31 0.30 0.30 0.30 0.30 0.31 0.31 0.33 0.35 0.36 0.35 0.33 0.31 0.30 0.29 0.29 0.31 0.32 0.32 0.32 0.30 0.28 0.27 0.25 0.24 0.24 0.25 0.25 0.25 0.25 0.25 0.27 0.29 0.31 0.33 0.35 0.38 0.40 0.43 0.45 0.47 0.50 0.51 0.52 0.52 0.53 0.54 0.54 0.54 0.55 0.54 0.54 0.54 0.55 0.55 0.55 0.55
0.46 0.46 0.46 0.46 0.46 0.47 0.48 0.47 0.47 0.47 0.47 0.46 0.46 0.45 0.44 0.44 0.43 0.42 0.41 0.40 0.39 0.38 0.36 0.35 0.34 0.32 0.31 0.31 0.30 0.30 0.30 0.31 0.31 0.31 0.31 0.33 0.34 0.35 0.33 0.31 0.31 0.30 0.30 0.30 0.31 0.31 0.31 0.30 0.28 0.27 0.25 0.24 0.23 0.23 0.24 0.24 0.24 0.24 0.25 0.25 0.27 0.30 0.32 0.34 0.35 0.37 0.40 0.42 0.44 0.47 0.49 0.50 0.50 0.51 0.52 0.53 0.54 0.54 0.54 0.54 0.54 0.54 0.54 0.55 0.55
Wind_Speed
15 15 15 15 16 17 18 18 18 17 17 17 17 16 15 15 15 15 14 13 12 11 11 10 10 10 10 10 9 9 9 9 9 9 9 9 9 9 9 9 8 8 8 8 8 8 8 8 8 8 8 7 7 7 7 7 7 7 7 7 7 7 8 8 8 9 10 10 10 11 11 11 11 11 12 12 12 13 13 13 13 13 14 14 15
15 15 15 15 15 17 18 19 18 18 17 18 18 17 17 17 17 16 16 16 15 14 13 12 11 11 11 11 11 11 10 10 10 10 10 10 10 10 10 10 10 10 10 10 9 9 9 9 9 9 9 9 9 9 8 8 8 8 9 9 9 9 9 9 9 10 10 11 11 11 12 12 12 12 13 13 14 14 14 14 14 14 15 15 15
14 15 15 15 14 16 17 18 18 18 18 18 18 18 18 18 18 18 18 17 17 16 15 14 13 12 12 12 12 11 11 11 11 11 11 11 11 11 11 11 12 12 12 11 11 11 10 10 11 11 11 10 10 10 10 9 9 10 10 10 10 10 11 11 11 11 11 12 12 12 12 13 13 13 14 14 15 15 15 16 16 16 16 17 17
14 14 15 14 14 15 16 17 18 18 19 18 18 18 18 18 19 18 18 18 17 17 17 16 16 15 14 14 14 13 13 13 13 13 13 13 13 13 13 13 13 13 13 13 13 12 12 12 12 12 12 11 11 11 11 11 11 11 11 11 11 11 12 12 12 12 12 13 13 13 13 14 14 14 15 16 16 16 17 17 18 18 18 19 19
14 15 15 15 15 16 16 17 18 18 18 18 18 18 18 18 19 19 19 19 18 18 18 18 18 17 17 16 16 16 16 16 16 16 16 15 15 15 14 14 14 14 14 14 14 14 14 13 13 13 13 13 13 13 13 12 13 13 13 13 13 13 13 13 13 13 13 14 14 14 15 15 15 16 16 17 17 18 18 19 19 20 20 20 21
14 15 16 16 16 17 17 17 17 17 18 18 18 19 19 19 19 19 20 20 19 19 19 19 18 18 18 18 18 18 18 18 18 18 18 18 18 17 17 16 16 16 16 16 16 16 16 15 15 14 15 15 14 14 14 14 14 14 14 14 14 14 14 15 15 15 15 15 15 16 16 16 17 17 17 18 19 19 20 20 21 21 22 22 23
15 16 17 17 17 17 17 17 17 18 19 19 20 20 19 19 20 20 20 20 20 20 20 20 20 19 19 19 18 19 19 20 20 20 20 20 20 20 20 19 19 18 18 18 18 18 18 17 17 17 17 17 16 16 16 15 15 15 15 15 16 16 16 16 16 16 16 16 17 17 17 18 18 19 19 20 20 20 21 22 22 23 23 23 24
17 17 17 18 18 18 18 18 19 19 19 19 19 19 19 20 20 21 21 21 22 22 21 21 21 21 20 19 19 19 19 20 21 21 22 22 23 22 22 22 22 21 21 21 20 20 20 20 20 20 19 19 19 18 18 17 17 17 17 17 17 17 17 17 17 18 18 18 19 19 19 20 20 21 21 21 22 22 22 23 24 25 25 25 26
18 18 18 18 18 18 18 18 19 19 19 19 19 19 20 21 21 21 22 22 23 23 22 21 22 22 21 21 20 20 20 21 21 22 22 23 24 24 25 25 25 24 24 23 23 23 23 23 23 22 22 21 21 21 21 20 19 19 19 19 19 19 19 19 19 19 20 20 21 21 22 22 23 23 23 23 24 24 25 25 25 26 27 28 28
20 20 19 19 19 19 18 18 19 19 19 20 21 21 21 22 22 22 22 22 22 22 21 21 22 22 21 21 21 21 21 22 22 22 22 22 22 23 24 25 26 26 26 26 26 26 25 25 25 25 25 24 24 23 23 22 22 21 21 21 21 21 21 21 21 21 22 22 23 23 24 25 25 25 25 26 26 27 27 27 28 28 28 29 29
21 21 21 20 20 19 19 19 19 20 20 20 21 21 21 21 22 22 22 21 21 22 22 22 22 22 22 22 22 22 21 22 22 23 23 23 23 23 23 24 24 25 26 27 27 28 28 28 28 27 27 26 26 25 25 25 24 24 24 23 23 23 23 24 24 24 24 25 25 26 26 27 28 28 28 28 29 29 30 30 30 31 30 30 31
22 22 22 21 21 20 20 20 20 21 21 21 21 21 21 21 21 21 21 21 21 21 22 22 22 22 22 22 22 22 22 22 22 23 23 24 24 25 25 25 25 25 26 27 27 27 28 29 29 29 29 29 28 28 27 27 26 26 26 26 26 25 26 26 27 27 27 28 28 29 29 30 30 30 31 31 32 32 33 33 33 33 33 33 33
23 23 22 22 22 21 21 21 21 22 22 22 21 21 21 21 21 21 21 21 21 21 21 22 22 22 22 22 22 22 22 23 23 24 24 25 25 26 26 27 27 27 28 28 28 28 28 29 29 30 30 30 30 29 29 28 28 28 28 27 28 28 29 29 30 30 31 31 31 32 32 32 33 33 34 34 35 35 36 36 36 36 36 36 37
24 24 24 23 23 22 22 22 22 22 22 22 21 21 21 21 21 21 21 21 22 22 22 23 23 23 23 23 23 24 24 24 24 24 25 25 26 26 26 27 28 28 29 29 29 30 30 30 30 31 31 31 31 30 30 30 30 30 30 30 30 31 32 33 33 34 34 34 34 34 34 35 35 36 36 37 38 38 39 39 39 39 40 40 39
26 25 25 24 24 24 23 23 23 23 22 22 22 22 22 22 22 23 23 23 23 24 24 24 24 24 24 25 25 25 25 25 25 25 26 26 26 26 27 27 28 28 29 29 29 30 30 31 31 32 33 32 32 32 32 32 32 32 33 33 33 34 35 35 36 36 36 36 36 36 37 37 38 39 39 40 41 41 42 42 42 42 42 42 41
26 26 26 25 25 25 25 24 24 24 23 23 23 23 23 24 24 24 24 24 25 25 25 25 25 25 25 26 26 26 26 26 26 26 26 26 26 26 27 27 27 27 27 28 28 29 29 30 30 32 32 33 33 33 33 33 33 34 35 35 35 36 36 37 37 37 37 37 38 38 39 40 40 41 42 42 43 43 43 43 43 43 43 43 42
26 26 26 27 27 27 27 26 26 26 25 25 25 25 25 25 25 25 25 25 25 25 25 25 25 26 26 26 26 26 27 27 27 27 27 26 26 26 26 26 27 27 27 27 27 27 28 28 29 30 31 32 32 32 33 33 34 35 35 36 36 37 37 38 38 38 38 39 39 40 41 41 42 43 43 44 44 43 43 43 43 42 43 43 42
27 28 27 27 28 28 28 28 28 28 28 27 27 26 26 26 26 26 25 25 25 25 25 25 26 26 27 27 27 27 27 28 28 28 28 27 26 26 26 26 26 26 26 26 26 26 26 27 28 29 30 31 31 32 32 33 34 34 35 35 36 37 37 37 38 39 39 40 41 41 42 42 43 43 44 44 44 43 43 43 43 43 43 43 43
28 28 28 28 28 28 28 29 29 28 28 28 28 27 27 26 26 26 26 26 26 26 26 26 27 27 28 28 28 28 29 29 29 29 29 28 28 27 27 27 26 26 26 26 26 26 27 27 28 28 29 30 30 31 32 33 33 34 35 35 36 36 37 38 38 39 40 41 41 42 43 43 43 43 43 43 43 43 43 43 43 43 43 43 43
29 29 29 29 28 28 27 27 27 27 27 28 28 28 28 27 27 27 28 28 28 28 28 28 28 28 28 29 29 29 30 30 30 30 30 29 29 29 28 28 27 27 27 27 27 27 28 28 29 29 29 30 30 31 32 32 33 34 35 35 36 37 37 38 39 40 40 41 42 42 42 43 43 43 43 43 43 43 43 43 43 43 44 44 44
33 32 32 31 31 30 29 29 29 29 28 28 29 29 29 30 30 30 30 30 30 30 30 29 29 29 29 29 29 30 30 30 30 30 29 29 29 29 29 29 28 28 28 28 28 28 29 30 30 30 30 30 31 31 32 33 34 34 35 36 36 37 38 39 39 40 40 41 41 41 41 42 42 42 43 43 43 44 44 44 44 44 44 44 45
35 35 35 35 34 34 33 33 33 32 32 31 31 32 32 32 32 32 32 32 31 31 31 30 30 30 30 30 30 30 30 29 29 29 28 28 28 28 28 28 28 28 28 28 29 29 29 30 30 31 31 31 31 32 33 33 34 35 36 36 37 37 38 39 39 40 40 40 41 41 42 42 42 43 43 44 44 44 44 44 45 45 45 46 46
37 37 37 37 36 36 36 36 35 35 35 34 34 34 34 34 34 33 33 33 33 32 32 31 31 31 30 30 29 29 29 28 28 28 28 28 28 28 28 28 28 28 28 28 29 29 30 30 30 31 31 31 32 33 33 34 35 35 36 36 37 37 37 38 38 39 39 40 41 42 42 43 43 44 44 44 44 44 44 45 45 45 46 46 47
38 38 38 38 38 37 37 37 37 36 36 36 35 35 35 34 34 34 34 34 34 33 33 32 32 31 31 30 29 29 28 28 28 28 28 28 28 28 27 27 27 28 28 28 29 29 30 30 31 31 32 32 33 33 33 34 34 35 35 35 35 36 36 36 37 38 39 40 40 41 41 42 42 42 43 43 43 43 44 44 44 45 45 45 45
39 39 39 39 39 39 39 38 38 38 37 37 37 36 36 36 35 35 35 35 35 34 34 33 32 31 31 30 30 29 28 28 28 28 28 28 28 28 28 28 28 28 28 28 28 29 29 30 30 31 32 32 32 32 32 33 33 33 33 33 34 34 35 35 36 37 38 38 39 39 39 40 40 40 41 41 41 42 42 42 43 43 43 43 43
40 40 40 40 40 40 40 39 39 38 38 38 38 37 37 36 36 36 35 35 35 34 34 33 32 32 31 31 30 30 29 29 29 29 29 28 28 28 27 27 27 27 27 27 27 28 28 29 30 30 30 31 31 31 31 31 31 31 31 32 32 33 33 34 35 35 36 36 37 37 37 38 38 39 39 39 40 40 40 41 41 41 41 42 42
42 42 41 40 40 40 40 40 40 39 39 38 38 37 37 36 36 36 35 34 34 34 33 33 33 32 32 31 31 31 30 30 29 28 28 28 28 28 27 27 27 27 27 27 27 28 28 28 28 29 29 29 29 29 29 29 29 29 30 30 31 31 32 33 33 34 34 35 36 36 37 37 38 38 38 39 39 39 40 40 41 41 41 41 42
44 43 42 41 40 40 40 40 40 40 39 39 38 37 37 37 37 36 35 35 34 34 33 33 33 32 32 31 31 30 30 29 29 28 28 28 28 27 27 27 27 27 27 27 27 27 27 27 26 26 26 26 26 27 27 27 27 27 28 29 30 31 32 32 33 34 34 35 36 37 37 38 38 39 39 39 39 40 40 40 41 41 41 41 42
44 44 43 43 42 41 40 40 39 39 39 38 38 37 37 37 37 37 36 35 35 34 33 33 32 31 30 30 29 28 28 28 28 28 27 27 27 27 27 26 26 26 26 26 25 25 25 24 24 24 24 24 24 24 25 25 26 27 27 29 30 30 31 32 33 34 35 35 36 37 38 38 38 39 39 39 39 39 39 40 40 41 41 41 41
43 43 43 43 42 42 41 41 40 39 39 39 38 38 37 36 36 36 36 35 35 34 33 32 31 30 30 30 29 28 27 27 27 26 26 26 26 25 25 25 25 25 24 24 23 23 23 22 22 22 21 21 22 23 24 25 25 26 27 28 29 30 31 32 32 33 34 35 36 37 37 38 38 38 39 39 39 39 39 39 39 39 40 40 40
42 42 42 41 41 40 40 40 40 40 40 39 39 38 37 36 35 35 34 34 33 32 32 31 30 30 30 29 29 28 27 26 25 25 25 25 24 24 23 23 23 23 22 21 21 21 20 20 19 20 20 20 21 22 23 24 24 25 26 27 28 29 30 31 32 33 34 35 35 36 37 37 38 38 38 38 38 38 37 37 37 37 37 37 37
42 42 41 41 40 39 39 39 39 39 38 38 38 37 36 35 34 33 32 32 31 30 30 29 28 28 27 27 27 26 25 24 23 23 23 23 22 22 22 21 20 20 20 19 19 19 18 18 18 18 19 20 20 21 21 22 23 24 25 26 28 29 30 31 31 32 33 34 35 35 36 36 36 36 36 35 35 34 34 33 33 33 33 33 33
43 42 42 41 41 40 40 39 38 38 37 37 36 36 35 34 33 32 31 30 29 28 28 27 26 26 25 25 25 24 23 23 22 21 21 21 20 20 19 18 18 18 18 18 17 17 17 17 17 18 18 18 18 18 19 20 22 23 24 25 27 28 29 30 31 31 32 33 34 34 34 34 33 32 31 31 30 29 29 28 28 28 28 28 28
43 43 42 42 41 41 40 39 39 38 38 37 36 36 35 34 33 31 30 29 27 27 26 25 25 25 24 24 23 22 22 21 20 20 19 19 18 18 17 17 17 17 16 16 16 16 15 16 16 16 15 15 16 17 18 19 20 21 23 24 26 27 28 29 30 31 32 32 32 32 31 30 29 28 27 26 25 24 23 23 23 23 23 23 24
41 42 42 41 41 40 40 39 38 38 38 37 36 36 35 33 31 30 29 28 27 26 26 25 25 24 23 22 22 21 20 19 19 18 18 18 17 16 16 16 16 15 15 15 14 14 14 14 13 13 13 14 14 15 16 17 19 21 23 25 26 27 28 29 30 30 30 30 29 28 26 25 24 22 21 20 20 20 20 20 21 21 21 22 22
37 38 39 39 39 39 39 38 37 37 36 36 35 34 33 31 30 29 28 27 26 25 25 24 23 22 21 20 20 19 18 18 17 17 18 17 16 16 15 15 15 14 14 13 13 12 12 11 11 11 12 12 12 13 15 17 19 21 23 25 26 27 28 28 28 27 26 25 24 23 22 20 19 18 18 18 19 19 20 20 20 21 21 21 22
33 34 35 35 36 36 36 36 35 35 34 33 33 32 31 29 28 27 26 25 25 24 24 23 22 21 20 19 18 18 17 16 16 16 16 16 15 14 14 14 14 13 13 12 11 10 10 9 10 10 10 10 11 13 15 17 19 21 23 25 26 27 27 26 25 24 23 22 21 20 18 17 17 17 18 18 19 19 19 20 20 21 21 22 22
28 29 30 31 31 32 32 33 33 32 31 31 31 30 29 27 27 26 25 24 24 23 23 22 21 20 19 18 17 17 16 15 15 15 14 14 14 14 14 13 12 12 11 10 9 8 8 8 8 7 8 9 10 12 14 16 18 21 23 25 26 26 25 24 22 21 20 19 19 18 17 16 17 17 18 18 19 19 19 20 20 21 22 22 22
23 24 25 26 27 27 27 28 29 29 29 28 28 28 27 26 25 25 24 23 22 22 21 21 21 20 18 17 16 16 15 15 14 14 13 13 13 13 13 12 11 10 9 8 7 7 6 6 6 6 7 8 10 12 14 16 19 21 23 25 25 25 23 22 20 19 18 17 17 17 17 16 17 17 18 18 18 19 19 20 20 21 21 21 21
18 20 21 21 22 23 23 23 24 25 25 26 26 26 25 25 24 24 23 22 21 20 20 20 20 18 17 17 16 15 15 15 14 13 13 12 12 11 11 10 9 8 8 7 6 6 5 5 5 5 6 8 10 12 14 16 19 21 23 25 25 24 22 20 19 18 17 16 17 17 16 16 16 17 17 17 18 18 19 19 19 19 19 18 18
11 14 16 17 17 19 19 20 20 21 21 22 23 24 24 23 23 23 21 21 20 20 19 19 18 17 17 17 16 15 15 14 13 13 12 11 11 10 10 9 9 8 7 6 6 5 5 4 4 5 6 9 11 13 14 17 19 21 23 25 25 23 21 19 18 17 16 16 17 17 17 17 17 17 17 18 18 18 18 18 18 17 17 17 17
5 8 11 12 13 15 16 17 17 18 18 18 19 20 21 21 22 22 21 20 19 19 19 18 17 17 16 16 15 14 14 13 13 12 12 11 10 10 10 9 9 8 7 6 6 5 4 3 3 5 7 9 11 13 15 17 19 21 23 24 24 23 21 19 18 17 16 16 17 17 17 17 17 18 18 18 18 17 17 16 16 17 17 17 16
7 8 9 9 11 13 14 15 16 16 16 16 16 17 19 20 20 21 20 19 19 19 19 17 17 16 15 15 15 14 13 13 12 12 11 11 11 11 10 10 9 8 7 6 5 4 3 3 3 5 7 9 11 13 15 17 19 21 22 24 24 23 22 20 18 17 16 16 17 17 17 17 17 17 17 17 17 16 16 15 15 16 16 16 16
12 11 10 10 11 12 13 15 16 15 14 14 15 16 17 19 19 19 19 19 19 18 17 16 16 16 15 15 14 13 12 12 12 12 12 12 12 11 11 10 9 8 7 5 4 4 3 3 4 6 8 10 12 13 15 17 19 20 22 23 23 23 22 21 19 18 17 17 17 17 17 17 17 17 16 16 16 15 15 14 15 15 15 15 15
17 16 15 14 14 14 14 15 15 15 14 15 15 16 17 18 18 18 18 18 18 17 16 16 16 16 15 14 13 12 12 13 13 13 12 12 12 11 10 9 8 7 6 5 4 4 3 4 5 6 8 10 12 13 15 17 19 20 21 23 23 23 23 22 20 19 18 17 17 17 17 17 16 16 16 15 15 14 13 13 14 15 15 15 14
19 18 17 17 16 16 15 16 16 16 16 16 16 16 16 17 17 17 17 17 17 16 16 15 15 15 14 13 13 13 13 13 13 13 13 12 11 10 10 9 8 7 5 5 4 4 4 4 5 7 8 10 12 13 15 17 18 20 21 22 23 23 23 23 22 20 18 18 17 17 17 16 16 16 15 15 13 12 12 12 13 14 14 14 14
19 19 19 18 18 18 17 17 17 17 17 17 16 16 16 16 16 16 16 16 15 15 15 14 14 14 13 13 13 13 13 13 13 13 12 11 11 10 9 8 7 6 5 5 5 4 4 4 5 7 8 10 11 13 15 16 18 19 20 21 22 23 23 24 23 21 20 18 18 17 17 16 16 15 15 13 11 11 11 12 13 14 14 14 13
19 19 19 18 18 18 17 17 16 16 16 15 15 15 15 15 15 14 14 14 14 14 14 13 13 13 13 13 13 13 13 13 13 12 11 10 10 9 8 7 7 6 6 6 5 5 4 5 6 7 8 10 11 13 15 16 17 18 19 21 22 23 24 24 24 23 22 20 19 17 16 16 15 15 14 13 11 10 11 11 12 13 14 14 13
17 17 17 17 17 16 16 15 15 14 14 14 13 13 13 13 13 12 12 12 13 13 13 13 13 13 13 13 13 13 13 13 12 11 10 10 10 9 8 7 7 7 6 6 5 5 5 5 6 7 8 10 11 13 14 16 17 18 19 20 21 23 24 25 24 24 23 22 20 18 17 16 15 14 13 12 12 11 10 11 11 12 13 13 13
15 15 15 15 15 14 14 13 13 12 12 11 11 11 11 11 11 11 11 12 12 12 12 13 13 13 13 13 13 13 12 12 11 9 9 9 9 9 8 7 7 7 7 6 5 5 5 6 6 7 8 9 11 12 14 15 17 18 19 20 21 22 23 24 25 25 24 23 21 19 17 16 15 15 14 12 12 11 10 10 11 11 11 12 12
13 12 12 12 12 11 11 10 10 10 10 10 10 10 10 10 10 11 11 11 11 12 12 12 12 12 12 12 12 12 11 11 10 9 9 9 9 9 8 8 8 8 7 6 6 6 6 6 7 7 8 9 10 12 13 15 16 17 18 19 20 21 22 23 24 25 25 24 23 21 19 17 16 15 14 13 12 11 11 10 10 10 10 10 10
Wind_Direction
256 256 254 254 249 240 235 234 237 242 244 242 241 243 243 238 237 241 242 244 247 249 253 255 255 255 255 255 256 258 260 261 262 262 262 263 264 263 263 263 261 262 262 261 261 260 260 260 260 261 262 262 263 264 264 266 267 268 269 269 269 269 268 265 263 263 265 269 273 276 279 280 279 279 278 277 279 281 280 280 280 279 278 277 276
260 259 256 255 250 239 236 238 241 244 245 243 241 243 244 238 237 241 244 247 250 250 251 253 253 254 255 256 258 259 262 264 264 263 262 263 264 264 265 264 263 264 264 262 263 265 264 263 261 263 264 264 264 263 263 264 265 268 270 270 271 272 271 269 267 266 267 270 272 276 279 280 280 281 280 279 280 280 280 280 280 279 279 278 277
260 258 256 254 246 240 239 240 242 243 244 244 241 242 243 239 238 242 244 247 250 250 251 251 251 252 252 254 257 258 261 263 263 264 264 264 264 264 265 266 265 265 264 263 263 264 265 263 262 263 264 265 264 264 264 264 265 267 269 271 272 273 274 273 272 271 272 273 274 278 280 281 281 282 282 282 282 281 281 281 281 281 281 280 279
259 257 256 252 245 244 245 244 244 244 244 244 241 240 241 241 241 243 243 245 247 248 250 250 251 252 252 255 258 260 261 262 262 264 265 264 264 264 265 267 267 266 265 264 264 264 264 263 262 262 264 265 265 265 266 266 268 269 271 272 273 274 274 274 273 273 273 275 276 278 281 282 283 284 284 284 283 282 282 282 282 281 281 282 281
259 257 256 253 248 247 248 249 248 245 242 242 241 241 244 245 244 243 243 245 247 248 249 251 252 254 256 259 261 263 264 264 263 264 265 265 264 264 264 265 267 267 266 265 264 264 264 264 263 263 264 266 266 267 268 269 270 272 272 273 274 274 274 274 273 272 273 275 276 278 281 282 283 284 285 285 283 282 282 282 282 282 281 281 281
258 257 257 255 252 250 251 251 247 242 240 242 243 245 248 249 247 244 243 245 248 251 252 254 255 256 259 261 263 264 265 265 264 264 264 264 264 264 264 264 265 266 265 264 263 263 264 264 264 263 263 265 266 266 267 269 271 272 273 273 274 275 276 275 275 274 274 275 276 278 281 283 284 285 286 287 286 285 285 284 283 283 283 283 282
259 258 257 256 255 253 252 249 247 246 247 247 246 247 249 248 247 247 247 247 250 254 256 257 258 259 261 262 264 265 265 264 264 264 264 264 263 263 263 264 264 264 264 264 262 262 262 261 262 263 265 265 265 265 266 268 270 272 273 274 274 275 276 276 276 276 276 277 278 280 282 284 285 286 287 287 287 286 287 286 285 285 285 285 284
261 261 260 258 256 256 254 249 248 252 252 249 247 247 248 250 251 252 252 252 254 257 258 257 258 261 264 264 265 266 266 265 265 265 265 264 262 262 263 264 264 263 263 263 262 261 260 259 260 262 264 265 264 264 265 266 269 271 272 274 275 276 276 276 276 275 276 277 279 281 282 284 286 286 287 288 288 287 287 287 286 285 285 285 284
261 261 261 260 257 257 256 252 251 251 251 249 249 250 252 254 255 255 255 256 258 259 257 256 259 262 265 266 267 267 267 267 267 266 266 265 264 263 263 264 264 263 262 262 262 262 261 260 261 261 263 263 262 263 264 265 267 269 271 273 275 276 276 276 276 276 276 277 278 280 282 284 285 287 288 289 289 288 288 287 286 285 285 284 284
261 260 261 261 260 258 256 254 252 252 251 251 252 254 256 256 257 257 257 258 259 257 254 255 260 263 265 266 267 267 267 268 268 267 267 266 266 265 264 264 264 263 263 262 262 263 263 262 262 262 262 262 261 262 263 264 266 268 270 272 274 276 277 277 277 277 278 279 279 280 282 283 284 286 287 288 288 288 288 288 287 286 286 286 284
261 261 261 261 260 259 256 254 253 253 253 254 255 256 257 256 257 258 259 259 259 257 256 259 263 265 266 267 268 268 268 267 267 267 267 267 267 266 265 264 263 263 263 263 263 263 263 263 263 263 262 262 261 261 262 264 266 268 270 272 274 276 278 278 278 278 280 281 280 280 281 282 283 284 285 286 287 288 288 288 288 287 287 286 285
261 260 260 259 258 257 256 255 254 254 254 256 257 257 257 256 256 258 259 260 259 259 259 262 264 266 267 268 268 268 268 268 268 268 268 268 267 267 266 265 264 264 264 264 264 264 262 262 262 262 263 263 263 263 263 265 267 269 270 272 274 276 276 276 277 278 280 281 281 281 281 282 283 284 284 285 286 287 287 287 287 286 286 285 284
260 260 260 259 258 257 257 257 256 256 256 258 258 258 257 256 256 257 259 259 259 260 261 263 264 266 267 267 268 268 269 270 270 270 270 269 267 267 267 267 267 266 266 266 266 265 263 262 261 261 261 262 263 264 265 266 268 270 271 272 274 275 276 276 277 279 279 280 281 281 282 282 283 283 284 285 285 286 286 286 286 285 285 284 283
260 260 260 260 259 258 258 258 257 257 258 258 258 257 257 256 257 258 259 260 261 262 264 265 266 267 267 268 269 270 270 270 271 272 271 271 270 269 269 268 268 268 267 267 266 265 264 263 262 261 260 260 262 264 265 266 268 269 269 271 273 276 277 278 278 279 279 279 280 281 281 282 282 283 283 284 284 285 285 285 285 285 284 284 283
261 260 260 260 260 259 259 258 258 258 258 257 257 257 257 258 259 260 261 262 263 264 265 266 268 269 269 270 271 271 271 272 272 273 273 272 271 271 271 270 269 268 267 266 266 265 264 264 263 262 261 261 262 263 265 266 267 268 269 271 274 275 277 277 277 278 278 279 280 280 281 281 282 282 283 284 284 284 284 284 284 284 283 283 283
261 260 260 259 259 259 259 258 257 257 257 257 257 258 258 259 260 261 263 264 264 265 266 267 269 270 271 271 272 272 272 273 273 274 275 274 273 273 272 272 271 270 268 267 265 264 264 264 263 262 262 262 263 264 266 267 268 269 271 273 275 275 275 276 276 277 278 279 280 280 281 281 282 282 283 284 284 284 284 284 284 283 283 282 282
257 258 258 259 259 259 260 259 258 257 256 256 257 258 259 260 261 262 263 264 265 266 266 267 269 270 272 272 272 272 273 273 274 274 274 273 273 273 273 272 272 271 270 268 267 266 264 263 263 262 262 263 264 265 267 268 269 271 272 274 275 275 275 276 277 278 279 279 280 280 281 282 282 283 283 283 283 283 283 283 283 283 282 281 281
257 257 257 258 259 259 259 259 259 258 257 257 258 258 260 261 261 262 263 265 266 266 266 268 270 272 272 273 272 272 272 273 274 273 272 272 273 273 273 272 272 271 270 270 269 268 267 265 264 263 263 264 265 266 268 269 271 272 274 275 276 275 276 277 278 278 279 280 280 280 281 281 282 282 282 282 282 282 281 281 281 281 281 280 280
258 258 257 258 259 259 259 259 258 257 256 257 257 258 260 261 261 263 264 265 266 266 267 269 272 274 274 273 273 273 272 272 272 272 271 271 272 273 272 272 272 271 270 270 270 270 269 268 267 266 265 266 267 269 270 271 273 274 275 275 276 276 277 278 278 279 279 280 280 280 281 281 282 282 282 282 282 281 280 280 280 280 280 280 279
258 259 259 258 258 259 258 257 256 256 255 256 257 258 259 260 261 262 263 264 265 267 269 271 273 274 275 274 274 273 272 272 272 271 271 271 271 271 272 271 271 270 270 270 270 270 270 270 269 269 269 270 271 272 272 273 274 274 275 276 277 277 278 278 279 279 280 280 280 280 281 281 281 281 281 281 281 281 280 279 279 279 279 279 279
258 258 258 258 258 258 256 255 256 256 257 257 258 258 259 260 261 263 264 264 266 267 269 271 273 275 276 276 275 274 274 273 272 272 271 270 270 270 270 270 270 270 270 270 270 270 270 271 271 271 271 272 273 274 275 276 276 276 277 277 278 278 279 279 280 280 280 280 280 280 280 280 280 281 281 281 280 280 280 279 278 278 278 278 278
259 259 258 259 259 258 258 257 257 258 259 260 260 261 262 263 264 264 264 264 266 267 268 270 272 275 276 277 276 275 275 274 273 272 271 270 270 270 270 269 269 269 269 270 270 270 270 271 271 271 272 273 275 276 277 278 278 278 278 279 279 279 280 280 280 281 281 281 281 281 281 281 281 281 281 281 281 281 280 279 278 277 277 277 277
260 260 259 259 258 259 259 259 259 260 260 261 261 262 263 264 264 264 264 264 265 267 268 270 271 273 275 275 275 275 274 273 273 272 271 270 270 270 270 269 269 270 270 270 270 270 271 271 272 273 274 275 277 277 277 277 278 278 278 279 280 280 281 281 282 282 282 283 283 283 283 283 283 283 282 282 282 281 280 279 278 278 277 277 277
261 260 259 258 257 257 258 258 259 260 260 260 261 261 262 262 263 263 264 264 265 266 267 269 270 271 272 273 273 273 272 272 272 272 271 270 270 270 270 269 269 270 270 270 270 270 271 272 273 274 275 276 277 277 277 278 278 279 279 280 280 281 282 283 283 284 284 284 284 284 284 284 284 283 283 283 282 282 281 280 279 279 278 278 277
262 261 260 258 257 257 257 257 258 259 259 259 260 260 261 261 261 262 263 264 264 265 266 266 267 268 269 269 269 270 270 271 271 271 270 270 269 269 269 269 269 269 269 270 271 272 272 273 274 275 276 277 277 278 278 279 279 280 280 281 282 283 284 284 285 285 285 285 285 285 285 285 284 284 284 283 283 282 281 281 280 280 279 278 278
260 260 259 258 258 257 256 257 257 258 258 259 259 260 260 260 260 261 262 263 264 264 264 264 265 265 266 266 266 267 268 269 270 269 269 268 267 267 267 268 269 269 270 271 272 273 274 275 276 276 277 277 278 278 279 280 280 281 282 283 284 284 285 285 286 286 286 286 286 287 287 286 286 286 285 285 284 283 282 282 281 281 280 280 279
259 259 258 258 258 257 256 256 256 256 257 257 257 258 259 259 259 260 261 262 262 263 263 263 263 263 264 264 265 265 266 267 267 267 267 267 266 266 267 268 269 270 271 273 274 275 276 277 277 277 277 278 278 279 279 280 281 283 284 284 285 286 286 287 287 288 288 288 288 288 288 288 288 287 287 287 286 285 284 283 282 281 281 280 280
259 259 258 257 257 257 256 256 255 255 256 255 255 256 257 258 258 259 260 261 261 262 263 263 262 262 262 262 263 264 264 264 264 264 265 265 265 265 266 267 269 271 272 274 275 276 276 277 277 277 277 278 278 279 281 282 284 285 286 287 288 288 289 289 289 289 289 289 289 289 289 289 289 289 289 288 287 286 285 284 283 282 281 281 280
259 259 258 257 256 256 256 256 256 255 255 254 254 256 256 256 257 258 259 260 260 261 262 262 262 261 260 259 260 261 262 262 262 263 263 264 264 265 266 267 269 271 273 273 274 275 275 276 276 277 278 279 281 283 284 286 287 288 289 289 290 290 290 291 291 291 291 291 291 291 291 290 290 290 289 289 288 287 286 285 284 283 282 281 280
258 258 258 258 257 256 256 256 255 255 254 254 254 255 255 255 256 257 259 260 260 260 260 260 259 258 257 257 258 260 262 262 261 261 262 262 263 264 266 268 269 271 272 272 273 274 274 276 277 278 280 282 284 286 287 288 289 290 291 292 292 293 293 294 294 293 293 293 292 292 292 291 291 291 290 289 289 288 287 286 285 284 283 282 281
257 256 256 256 256 256 256 255 255 254 254 254 254 254 254 255 256 257 258 259 259 258 257 257 256 255 255 256 258 260 261 259 258 258 260 261 262 264 265 267 268 269 269 270 272 274 275 276 278 280 282 284 285 287 288 289 291 293 294 295 296 296 296 296 296 295 295 295 294 294 293 293 292 292 291 290 290 289 288 287 286 285 284 283 282
256 255 254 254 254 254 254 254 254 253 253 253 252 252 252 253 255 256 258 257 256 254 254 254 253 253 254 255 256 258 258 256 255 256 257 259 261 263 264 264 265 265 266 269 271 273 275 276 278 280 283 285 286 288 290 293 295 297 298 298 298 298 299 299 298 298 298 297 297 296 295 295 294 293 292 292 291 290 289 288 287 286 285 284 284
256 255 254 253 252 252 252 252 252 251 251 250 250 251 251 251 252 253 254 253 252 251 251 250 250 251 251 252 254 254 254 252 252 253 255 257 259 259 260 261 262 263 265 268 270 271 273 276 278 280 283 285 288 292 295 298 299 300 301 301 302 302 302 302 301 301 301 300 299 298 298 297 296 295 295 294 293 292 291 290 289 288 287 287 286
255 254 253 252 251 250 250 250 250 250 249 249 249 249 250 251 250 249 248 247 247 247 247 247 248 249 249 250 251 250 248 248 248 249 251 254 255 254 255 258 261 264 266 267 269 271 273 276 278 280 284 288 293 297 300 302 304 305 306 306 306 306 305 305 305 304 304 303 302 301 301 300 299 298 298 297 296 295 294 293 293 292 291 290 289
254 252 251 251 250 249 248 248 248 249 248 247 247 248 249 248 246 244 243 243 242 242 243 244 246 247 247 247 246 245 244 244 244 245 247 250 251 251 254 258 260 263 265 267 269 270 272 274 277 281 287 292 297 301 304 308 311 312 312 311 310 310 309 309 309 308 307 306 305 305 304 303 302 301 301 300 299 298 297 296 296 295 294 293 292
253 251 249 248 248 247 247 247 247 247 246 246 245 245 245 244 242 240 240 239 238 238 240 241 242 243 243 242 241 240 240 240 241 242 245 247 248 250 253 256 257 260 263 265 266 266 268 272 279 285 290 295 301 306 311 314 316 316 316 315 315 315 314 313 313 312 311 310 309 308 307 306 306 306 305 304 303 301 300 300 299 297 296 295 294
252 249 247 246 245 244 244 243 243 243 243 242 241 240 240 238 237 236 236 235 235 235 235 236 236 235 235 235 235 235 235 236 239 241 242 243 245 248 250 252 254 257 259 259 259 261 266 274 280 286 292 299 307 313 316 318 320 321 322 322 322 321 319 318 318 317 316 314 313 312 311 310 310 309 309 308 308 307 306 304 302 301 300 298 296
250 247 244 243 242 241 240 240 239 238 237 237 236 235 234 233 233 232 231 231 231 231 230 229 228 228 227 228 230 229 229 232 235 236 238 241 244 246 247 248 249 250 250 251 254 259 265 271 277 285 296 305 312 318 321 323 326 328 329 329 328 326 324 323 323 322 319 317 317 317 315 314 312 311 311 312 312 311 309 307 305 304 303 302 300
247 243 240 238 238 237 236 236 234 232 231 230 230 229 228 228 227 227 227 227 226 226 225 223 221 221 222 221 221 222 224 226 228 229 233 238 241 242 241 240 240 240 241 245 249 252 255 263 274 288 301 311 319 323 326 329 332 335 335 335 334 331 329 328 327 325 322 321 321 321 319 317 315 314 313 313 313 312 311 310 308 307 305 304 302
243 238 233 231 231 230 229 228 227 226 225 224 223 222 221 221 221 222 222 220 219 219 218 215 214 215 215 214 214 216 219 221 222 225 229 233 233 232 230 230 230 231 232 233 235 238 244 257 274 292 308 319 325 328 331 335 338 340 340 340 339 337 334 332 331 328 325 325 326 325 323 320 319 318 317 316 316 315 314 313 311 311 310 309 307
236 227 221 220 220 220 218 217 217 217 217 216 215 214 214 215 215 214 213 212 212 212 210 207 207 207 208 208 209 212 214 216 219 222 225 225 225 224 222 220 220 219 218 219 222 229 239 255 277 300 316 325 328 332 337 340 342 343 344 344 344 342 339 337 336 333 329 328 328 326 324 323 323 322 322 321 320 319 319 318 318 318 317 316 313
192 194 197 201 204 204 204 204 204 203 203 203 204 205 207 208 208 206 205 205 204 202 200 200 201 202 203 204 205 207 211 214 217 218 219 220 219 215 210 207 207 207 208 211 216 223 232 252 283 308 321 327 331 336 340 343 345 346 347 348 348 347 344 342 340 337 333 330 330 328 326 325 325 324 324 324 324 324 324 324 325 326 324 321 318
109 138 157 170 177 181 184 186 186 185 186 190 195 198 200 200 199 197 196 196 194 193 193 194 196 198 200 201 202 205 209 213 214 214 212 209 205 200 197 197 199 201 203 207 213 220 230 254 291 313 324 329 333 338 342 345 348 349 350 351 352 352 349 346 344 342 339 335 333 331 329 327 326 326 326 326 327 327 328 329 330 330 329 327 324
87 103 118 132 144 153 160 165 167 168 173 178 182 185 187 187 187 187 187 187 187 188 189 191 193 195 197 199 201 204 207 208 206 203 199 194 190 190 192 194 197 199 202 208 216 226 240 267 299 317 326 331 336 341 345 347 350 351 352 354 355 355 353 351 348 346 343 339 337 336 334 331 330 330 330 329 329 330 332 333 334 333 333 333 332
80 88 98 109 121 131 141 148 152 154 158 162 163 163 166 170 172 175 177 179 182 185 187 190 191 192 193 196 199 200 199 197 194 191 187 186 187 190 192 194 197 199 203 211 221 233 250 280 306 319 326 331 337 343 346 349 351 353 354 355 357 358 358 355 351 348 346 344 341 340 338 336 335 335 333 331 332 334 336 339 341 340 339 341 341
81 86 92 98 106 114 122 130 136 139 143 147 149 151 155 159 163 167 171 174 178 181 183 185 186 188 191 193 194 192 189 188 186 185 185 187 190 192 193 196 199 202 208 217 229 241 263 290 310 321 327 333 340 344 347 350 352 354 355 356 358 359 360 358 355 351 348 347 345 344 342 341 340 340 337 334 334 338 344 349 351 350 349 351 352
82 87 91 96 100 106 112 118 124 129 133 138 142 145 150 154 158 161 165 169 172 175 178 180 184 187 189 188 186 184 184 184 184 185 187 191 193 193 195 199 204 208 215 226 238 253 275 297 312 322 330 336 342 346 348 350 352 354 355 357 359 360 0 0 359 356 352 350 348 348 347 345 344 345 344 341 341 347 352 355 357 358 357 359 2
81 85 90 95 99 104 109 114 119 123 129 134 137 141 146 151 155 158 161 165 170 175 179 182 185 186 185 182 182 182 184 185 186 188 191 194 195 196 200 205 210 215 223 235 248 264 284 301 312 322 331 336 342 346 349 350 352 353 354 357 359 360 0 1 1 360 357 354 351 351 351 349 348 349 350 349 348 351 353 355 358 0 1 3 8
81 85 89 93 97 101 106 110 114 119 125 131 136 140 146 151 155 158 163 168 173 178 181 182 183 182 181 180 181 183 185 186 189 192 195 198 200 203 208 212 217 224 232 244 257 272 288 301 311 321 329 334 339 345 347 349 350 352 353 355 357 358 360 1 2 2 1 360 357 355 353 352 351 351 352 351 349 348 347 349 353 358 1 4 10
80 84 88 91 95 99 103 107 112 116 122 129 137 143 148 153 157 162 166 170 173 176 177 177 178 178 179 181 183 186 188 190 193 197 202 205 208 211 215 220 226 233 241 249 260 274 288 299 308 317 324 330 336 341 344 346 348 350 351 352 354 356 359 1 2 2 3 3 2 360 358 355 353 351 352 353 353 351 347 346 349 352 357 2 8
76 81 85 88 92 96 100 105 110 115 121 128 136 144 150 155 158 161 164 166 168 169 171 174 176 179 181 184 187 190 193 196 200 206 211 212 214 217 222 228 234 241 248 254 262 275 285 293 302 311 318 325 331 336 339 341 345 347 349 350 352 354 357 359 1 2 3 4 5 4 2 360 356 353 352 354 356 356 352 350 350 351 353 358 3